Weather in Grishino

Russia / Vladimir Oblast     56˚00′19″N   42˚17′37″E
temp.,
°C
wind,
m/s
gust,
m/s
humid.,
%
clouds,
%
prec.,
mm/h
press.,
hPa
HPBL,
m
17 january, sun
sun1700:00−15˚nnw3794100 0.2 1003408
03:00−17˚nw3895100 0.2 1006349
06:00−19˚nw3894100 0.1 1007378
09:00−22˚nw379697 0.1 1010249
12:00−21˚nnw249377 0.0 1013281
15:00−20˚nw249461 0.0 1014221
18:00−23˚nnw229822 0.0 101724
21:00−24˚nnw119811 0.0 101820
18 january, mon
mon1800:00−24˚n119827 0.0 101920
03:00−24˚ne119863 0.0 102020
06:00−25˚ssw119959 0.0 102020
09:00−25˚n019869 0.0 102020
12:00−19˚ese019182 0.0 1021145
15:00−19˚ssw119585 0.0 102021
18:00−22˚e1196100 0.0 102020
21:00−22˚s1196100 0.0 102020
19 january, tue
tue1900:00−21˚n1195100 0.0 101920
03:00−21˚e1195100 0.0 101920
06:00−20˚e1195100 0.0 101830
09:00−20˚ne1194100 0.0 101859
12:00−18˚ne0188100 0.0 1017218
15:00−17˚n0189100 0.0 1016217
18:00−18˚nne1195100 0.0 101627
21:00−18˚n0195100 0.0 101720
20 january, wed
wed2000:00−18˚nw1197100 0.0 101620
03:00−17˚wnw1297100 0.1 101796
06:00−17˚nw239799 0.1 1017122
09:00−17˚wnw249799 0.3 1017127
12:00−14˚wnw249385 0.1 1018255
15:00−13˚w259592 0.1 1018234
18:00−16˚w259789 0.0 1019115
21:00−17˚w249781 0.1 102076
21 january, thu
thu2100:00−17˚wsw239745 0.0 102168
03:00−18˚wsw239740 0.0 102161
06:00−18˚sw359778 0.0 1021101
09:00−18˚ssw389685 0.0 1021197
12:00−14˚ssw51090100 0.0 1019313
15:00−12˚ssw71584100 0.0 1014502
18:00−10˚sw71593100 0.9 1011737
21:00−8˚sw71591100 1.7 1009702